This is the latest recevied weather packets stored in our database for station/object HP3ICC-22. If no packets are shown the sender has not sent any weather packets the latest 10 day(s).
| Time | Temp. | Humidity | Pressure | Rain* | Wind** | Luminosity | Snow |
|---|---|---|---|---|---|---|---|
| 1777988629 | 11.11° C | 89% | 1014 hPa | 0 mm | - | - | - |
| 1777988569 | 11.11° C | 89% | 1014 hPa | 0 mm | - | - | - |
| 1777987429 | 11.67° C | 88% | 1012 hPa | 0 mm | - | - | - |
| 1777987369 | 11.67° C | 88% | 1012 hPa | 0 mm | - | - | - |
| 1777986228 | 12.22° C | 89% | 1012 hPa | 0 mm | - | - | - |
| 1777986168 | 12.22° C | 89% | 1012 hPa | 0 mm | - | - | - |
| 1777985028 | 10° C | 90% | 1014 hPa | 0 mm | - | - | - |
| 1777984967 | 10° C | 90% | 1014 hPa | 0 mm | - | - | - |
| 1777983827 | 10.56° C | 78% | 1012 hPa | 0 mm | - | - | - |
| 1777983767 | 10.56° C | 78% | 1012 hPa | 0 mm | - | - | - |
| 1777982627 | 10° C | 90% | 1012 hPa | 0 mm | - | - | - |
| 1777982566 | 10° C | 90% | 1012 hPa | 0 mm | - | - | - |
| 1777981426 | 10.56° C | 78% | 1013 hPa | 0 mm | - | - | - |
| 1777981366 | 10.56° C | 78% | 1013 hPa | 0 mm | - | - | - |
| 1777980225 | 9.44° C | 78% | 1012 hPa | 0 mm | - | - | - |
| 1777980165 | 9.44° C | 78% | 1012 hPa | 0 mm | - | - | - |
| 1777979025 | 10.56° C | 78% | 1012 hPa | 0 mm | - | - | - |
| 1777978965 | 10.56° C | 78% | 1012 hPa | 0 mm | - | - | - |
| 1777977825 | 9.44° C | 78% | 1013 hPa | 0 mm | - | - | - |
| 1777977764 | 9.44° C | 78% | 1013 hPa | 0 mm | - | - | - |
| 1777976624 | 10.56° C | 78% | 1011 hPa | 0 mm | - | - | - |
| 1777976564 | 10.56° C | 78% | 1011 hPa | 0 mm | - | - | - |
| 1777975424 | 8.89° C | 85% | 1011 hPa | 0 mm | - | - | - |
| 1777975364 | 8.89° C | 85% | 1011 hPa | 0 mm | - | - | - |
| 1777974223 | 9.44° C | 85% | 1012 hPa | 0 mm | - | - | - |
* Rain latest hour (hover to see other rain measurements)
** Current wind speed in m/s (hover to see current wind gust speed)